This is the latest recevied weather packets stored in our database for station/object S51UL-6. If no packets are shown the sender has not sent any weather packets the latest 1 day(s).
| Time | Temp. | Humidity | Pressure | Rain* | Wind** | Luminosity | Snow |
|---|---|---|---|---|---|---|---|
| 1777986210 | 20.56° C | 49% | 1012.1 hPa | 0 mm | 1.34 m/s, 135° | - | - |
| 1777985910 | 20.56° C | 48% | 1012.1 hPa | 0 mm | 2.24 m/s, 135° | - | - |
| 1777985611 | 20° C | 48% | 1012.2 hPa | 0 mm | 0.45 m/s, 135° | - | - |
| 1777984710 | 20° C | 48% | 1012.3 hPa | 0 mm | 1.79 m/s, 180° | - | - |
| 1777984410 | 20° C | 48% | 1012.3 hPa | 0 mm | 1.79 m/s, 158° | - | - |
| 1777984110 | 20° C | 47% | 1012.5 hPa | 0 mm | 2.68 m/s, 158° | - | - |
| 1777983510 | 20.56° C | 47% | 1012.4 hPa | 0 mm | 2.24 m/s, 158° | - | - |
| 1777983211 | 20.56° C | 45% | 1012.7 hPa | 0 mm | 3.58 m/s, 158° | - | - |
| 1777982611 | 21.11° C | 44% | 1012.4 hPa | 0 mm | 3.13 m/s, 180° | - | - |
| 1777982311 | 21.67° C | 43% | 1012.4 hPa | 0 mm | 3.58 m/s, 113° | - | - |
| 1777982011 | 21.67° C | 42% | 1012.5 hPa | 0 mm | 3.13 m/s, 0° | - | - |
| 1777981711 | 22.78° C | 41% | 1012.6 hPa | 0 mm | 2.68 m/s, 158° | - | - |
| 1777981411 | 23.33° C | 41% | 1012.3 hPa | 0 mm | 2.24 m/s, 158° | - | - |
| 1777981111 | 22.78° C | 42% | 1012.1 hPa | 0 mm | 4.02 m/s, 158° | - | - |
| 1777980811 | 22.78° C | 41% | 1012.2 hPa | 0 mm | 2.24 m/s, 180° | - | - |
| 1777980512 | 22.78° C | 41% | 1012.3 hPa | 0 mm | 1.34 m/s, 180° | - | - |
| 1777980211 | 22.78° C | 41% | 1012.5 hPa | 0 mm | 2.68 m/s, 180° | - | - |
| 1777979911 | 22.78° C | 40% | 1012.3 hPa | 0 mm | 5.36 m/s, 158° | - | - |
| 1777979311 | 23.33° C | 39% | 1011.9 hPa | 0 mm | 4.92 m/s, 158° | - | - |
| 1777979011 | 23.89° C | 38% | 1011.6 hPa | 0 mm | 3.58 m/s, 158° | - | - |
| 1777978711 | 24.44° C | 37% | 1011.7 hPa | 0 mm | 4.92 m/s, 135° | - | - |
| 1777978411 | 25° C | 37% | 1011.6 hPa | 0 mm | 4.02 m/s, 158° | - | - |
| 1777978111 | 24.44° C | 36% | 1011.5 hPa | 0 mm | 4.02 m/s, 158° | - | - |
| 1777977811 | 25.56° C | 36% | 1011.4 hPa | 0 mm | 5.81 m/s, 135° | - | - |
| 1777977511 | 25.56° C | 36% | 1011.6 hPa | 0 mm | 4.47 m/s, 135° | - | - |
* Rain latest hour (hover to see other rain measurements)
** Current wind speed in m/s (hover to see current wind gust speed)